GW5240 Weather Reports


Display with metric or nautical units.
time (UTC)temp
F
wind
direction
speed
MPH
gust
MPH
rain 1hr
in
rain 24hr
in
rain mn
in
humidity
%
barometer
mb
20260901192700 89 163 0.0 0.0 0.00 0.00 0.00 44 1013.7
20260901192155 90 177 0.0 0.0 0.00 0.00 0.00 41 1013.7
20260901191651 89 156 0.0 0.0 0.00 0.00 0.00 43 1013.9
20260901191142 89 194 3.0 3.0 0.00 0.00 0.00 38 1013.8
20260901190638 89 166 0.0 0.0 0.00 0.00 0.00 41 1013.8
20260901190137 89 168 0.0 0.0 0.00 0.00 0.00 43 1013.8
20260901185636 90 179 0.0 0.0 0.00 0.00 0.00 39 1013.8
20260901185134 91 160 0.0 2.0 0.00 0.00 0.00 38 1013.9
20260901184630 91 179 2.0 2.0 0.00 0.00 0.00 39 1013.7
20260901184125 91 174 2.0 2.0 0.00 0.00 0.00 40 1013.7
20260901183620 90 195 1.0 2.0 0.00 0.00 0.00 41 1014.0
20260901183115 91 84 2.0 3.0 0.00 0.00 0.00 40 1014.1
20260901182612 89 194 1.0 2.0 0.00 0.00 0.00 42 1014.0
20260901182111 89 170 2.0 2.0 0.00 0.00 0.00 42 1014.1
20260901181610 89 217 0.0 0.0 0.00 0.00 0.00 43 1014.1
20260901181109 88 157 1.0 2.0 0.00 0.00 0.00 44 1014.3
20260901180604 88 189 0.0 2.0 0.00 0.00 0.00 46 1014.2
20260901180058 88 181 1.0 2.0 0.00 0.00 0.00 45 1014.4
20260901175551 88 188 0.0 2.0 0.00 0.00 0.00 47 1014.6
20260901175046 88 6 3.0 3.0 0.00 0.00 0.00 45 1014.7
20260901174542 87 171 1.0 2.0 0.00 0.00 0.00 47 1014.6
20260901174038 88 185 0.0 0.0 0.00 0.00 0.00 45 1014.6
20260901173532 87 172 0.0 0.0 0.00 0.00 0.00 46 1014.7
20260901173028 87 190 2.0 2.0 0.00 0.00 0.00 46 1014.8
20260901172524 88 358 5.0 5.0 0.00 0.00 0.00 43 1014.7
20260901172022 89 180 1.0 2.0 0.00 0.00 0.00 43 1014.7
20260901171521 89 117 2.0 2.0 0.00 0.00 0.00 45 1014.8
20260901171020 88 269 1.0 2.0 0.00 0.00 0.00 45 1014.8
20260901170515 87 168 0.0 0.0 0.00 0.00 0.00 47 1014.9
20260901170015 86 145 0.0 2.0 0.00 0.00 0.00 46 1014.9
20260901165509 87 139 1.0 2.0 0.00 0.00 0.00 46 1014.9
20260901165005 88 117 3.0 3.0 0.00 0.00 0.00 45 1014.9
20260901164500 87 173 0.0 0.0 0.00 0.00 0.00 47 1015.0
20260901164000 88 17 3.0 3.0 0.00 0.00 0.00 43 1014.9
20260901163455 87 198 2.0 3.0 0.00 0.00 0.00 46 1015.0
20260901162954 87 162 0.0 2.0 0.00 0.00 0.00 46 1014.9
20260901162449 87 91 2.0 2.0 0.00 0.00 0.00 46 1014.9
20260901161949 87 309 3.0 5.0 0.00 0.00 0.00 46 1014.9
20260901161448 86 160 0.0 2.0 0.00 0.00 0.00 51 1014.7
20260901160943 85 144 2.0 3.0 0.00 0.00 0.00 50 1014.9
20260901160439 85 193 2.0 2.0 0.00 0.00 0.00 50 1014.7
20260901155938 84 186 1.0 2.0 0.00 0.00 0.00 52 1014.5
20260901155432 83 182 2.0 2.0 0.00 0.00 0.00 57 1014.8
20260901154929 83 189 0.0 2.0 0.00 0.00 0.00 54 1014.8
20260901154428 83 206 0.0 2.0 0.00 0.00 0.00 61 1014.9
20260901153923 82 151 0.0 0.0 0.00 0.00 0.00 58 1014.6
20260901153418 82 128 1.0 2.0 0.00 0.00 0.00 59 1014.7
20260901152918 81 24 3.0 3.0 0.00 0.00 0.00 59 1014.7
20260901152412 81 152 2.0 2.0 0.00 0.00 0.00 61 1014.9
20260901151907 82 154 0.0 0.0 0.00 0.00 0.00 59 1014.9
20260901151406 81 151 0.0 2.0 0.00 0.00 0.00 61 1014.8
20260901150906 80 176 0.0 0.0 0.00 0.00 0.00 63 1014.8
20260901150404 80 147 0.0 0.0 0.00 0.00 0.00 64 1014.9
20260901145901 79 162 0.0 0.0 0.00 0.00 0.00 65 1015.2
20260901145356 78 166 0.0 0.0 0.00 0.00 0.00 66 1015.1
20260901144851 78 130 1.0 2.0 0.00 0.00 0.00 67 1015.1
20260901144347 77 161 3.0 3.0 0.00 0.00 0.00 69 1015.1
20260901143842 75 170 1.0 2.0 0.00 0.00 0.00 73 1015.1
20260901143338 75 169 1.0 2.0 0.00 0.00 0.00 73 1015.3
20260901142835 74 180 0.0 0.0 0.00 0.00 0.00 75 1015.2
20260901142333 74 160 0.0 0.0 0.00 0.00 0.00 77 1015.3
20260901141834 73 155 0.0 2.0 0.00 0.00 0.00 78 1015.4
20260901141329 72 156 2.0 3.0 0.00 0.00 0.00 80 1015.2
20260901140828 72 359 0.0 0.0 0.00 0.00 0.00 82 1015.2
20260901140326 71 170 0.0 0.0 0.00 0.00 0.00 86 1015.2
20260901135821 70 167 0.0 2.0 0.00 0.00 0.00 88 1015.3
20260901135316 69 157 1.0 2.0 0.00 0.00 0.00 92 1015.3
20260901134813 68 197 0.0 2.0 0.00 0.00 0.00 94 1015.3
20260901134312 68 164 0.0 0.0 0.00 0.00 0.00 96 1015.2
20260901133807 68 169 0.0 0.0 0.00 0.00 0.00 96 1015.3
20260901133306 67 169 0.0 0.0 0.00 0.00 0.00 97 1015.3
20260901132804 67 167 0.0 0.0 0.00 0.00 0.00 98 1015.4
20260901132300 67 170 0.0 0.0 0.00 0.00 0.00 98 1015.3
20260901131754 67 168 0.0 0.0 0.00 0.00 0.00 98 1015.3
20260901131254 67 163 0.0 0.0 0.00 0.00 0.00 98 1015.1
20260901130749 66 158 0.0 0.0 0.00 0.00 0.00 98 1015.1
20260901130248 66 165 0.0 0.0 0.00 0.00 0.00 98 1014.9
20260901125746 65 165 0.0 0.0 0.00 0.00 0.00 98 1015.1
20260901125241 65 165 0.0 0.0 0.00 0.00 0.00 98 1015.0
20260901124742 65 165 0.0 0.0 0.00 0.00 0.00 98 1015.1
20260901124236 65 165 0.0 0.0 0.00 0.00 0.00 98 1015.0
20260901123736 64 165 0.0 0.0 0.00 0.00 0.00 98 1015.2
20260901123231 64 165 0.0 0.0 0.00 0.00 0.00 98 1015.3
20260901122730 64 164 0.0 0.0 0.00 0.00 0.00 98 1015.2
20260901122225 64 163 0.0 0.0 0.00 0.00 0.00 98 1015.1
20260901121719 64 163 0.0 0.0 0.00 0.00 0.00 98 1015.0
20260901121214 63 163 0.0 0.0 0.00 0.00 0.00 98 1014.9
20260901120714 63 163 0.0 0.0 0.00 0.00 0.00 98 1014.8
20260901120209 63 163 0.0 0.0 0.00 0.00 0.00 98 1014.8
20260901115704 63 161 0.0 0.0 0.00 0.00 0.00 98 1014.7
20260901115200 63 160 0.0 0.0 0.00 0.00 0.00 98 1014.8
20260901114657 63 163 0.0 0.0 0.00 0.00 0.00 98 1014.7
20260901114156 63 163 0.0 0.0 0.00 0.00 0.00 98 1014.6
20260901113650 63 163 0.0 0.0 0.00 0.00 0.00 98 1014.6
20260901113145 63 163 0.0 0.0 0.00 0.00 0.00 98 1014.3
20260901112644 63 161 0.0 0.0 0.00 0.00 0.00 98 1014.4
20260901112138 63 170 0.0 0.0 0.00 0.00 0.00 98 1014.3
20260901111638 63 170 0.0 0.0 0.00 0.00 0.00 98 1014.3
20260901111132 63 170 0.0 0.0 0.00 0.00 0.00 98 1014.2
20260901110627 63 169 0.0 0.0 0.00 0.00 0.00 98 1014.1
20260901110122 63 169 0.0 0.0 0.00 0.00 0.00 97 1014.0
20260901105619 63 169 0.0 0.0 0.00 0.00 0.00 97 1014.2
20260901105118 63 169 0.0 0.0 0.00 0.00 0.00 97 1014.0
20260901104614 63 169 0.0 0.0 0.00 0.00 0.00 97 1014.0
20260901104108 63 167 0.0 0.0 0.00 0.00 0.00 97 1013.8
20260901103603 63 167 0.0 0.0 0.00 0.00 0.00 97 1013.8
20260901103058 63 167 0.0 0.0 0.00 0.00 0.00 97 1013.8
20260901102553 63 167 0.0 0.0 0.00 0.00 0.00 97 1013.8
20260901102048 63 167 0.0 0.0 0.00 0.00 0.00 97 1013.8
20260901101544 63 167 0.0 0.0 0.00 0.00 0.00 97 1013.8
20260901101042 63 167 0.0 0.0 0.00 0.00 0.00 97 1013.8
20260901100537 63 167 0.0 0.0 0.00 0.00 0.00 97 1013.8
20260901100037 63 167 0.0 0.0 0.00 0.00 0.00 97 1013.8
20260901095535 63 167 0.0 0.0 0.00 0.00 0.00 97 1013.8
20260901095033 63 167 0.0 0.0 0.00 0.00 0.00 97 1013.8
20260901094528 63 167 0.0 0.0 0.00 0.00 0.00 97 1013.7
20260901094027 63 167 0.0 0.0 0.00 0.00 0.00 97 1013.9
20260901093522 63 167 0.0 0.0 0.00 0.00 0.00 97 1013.7
20260901093017 64 167 0.0 0.0 0.00 0.00 0.00 97 1013.8
20260901092513 63 167 0.0 0.0 0.00 0.00 0.00 97 1013.9
20260901092009 64 167 0.0 0.0 0.00 0.00 0.00 97 1013.7
20260901091504 64 168 0.0 0.0 0.00 0.00 0.00 97 1013.7
20260901091003 64 168 0.0 0.0 0.00 0.00 0.00 97 1013.7
20260901090458 64 168 0.0 0.0 0.00 0.00 0.00 97 1013.6
20260901085953 64 168 0.0 0.0 0.00 0.00 0.00 97 1013.7
20260901085449 64 168 0.0 0.0 0.00 0.00 0.00 97 1013.7
20260901084945 64 168 0.0 0.0 0.00 0.00 0.00 96 1013.9
20260901084441 64 168 0.0 0.0 0.00 0.00 0.00 96 1013.8
20260901083937 64 168 0.0 0.0 0.00 0.00 0.00 97 1013.7
20260901083437 64 168 0.0 0.0 0.00 0.00 0.00 96 1013.5
20260901082935 64 168 0.0 0.0 0.00 0.00 0.00 96 1013.6
20260901082430 64 168 0.0 0.0 0.00 0.00 0.00 96 1013.5
20260901081925 64 168 0.0 0.0 0.00 0.00 0.00 96 1013.6
20260901081420 64 168 0.0 0.0 0.00 0.00 0.00 96 1013.7
20260901080915 65 168 0.0 0.0 0.00 0.00 0.00 96 1013.6
20260901080409 64 168 0.0 0.0 0.00 0.00 0.00 96 1013.8
20260901075903 64 168 0.0 0.0 0.00 0.00 0.00 96 1013.7
20260901075359 64 168 0.0 0.0 0.00 0.00 0.00 96 1013.8
20260901074853 65 168 0.0 0.0 0.00 0.00 0.00 96 1013.8
20260901074354 65 168 0.0 0.0 0.00 0.00 0.00 96 1014.0
20260901073849 65 168 0.0 0.0 0.00 0.00 0.00 96 1013.8
20260901073345 65 168 0.0 0.0 0.00 0.00 0.00 95 1013.8
20260901072840 65 168 0.0 0.0 0.00 0.00 0.00 95 1013.8
20260901072340 65 168 0.0 0.0 0.00 0.00 0.00 95 1013.9
20260901071835 66 168 0.0 0.0 0.00 0.00 0.00 95 1014.0
20260901071334 66 168 0.0 0.0 0.00 0.00 0.00 95 1014.0
20260901070833 66 168 0.0 0.0 0.00 0.00 0.00 95 1014.2
20260901070329 66 168 0.0 0.0 0.00 0.00 0.00 95 1013.9
20260901065827 66 168 0.0 0.0 0.00 0.00 0.00 95 1014.0
20260901065323 66 168 0.0 0.0 0.00 0.00 0.00 95 1014.1
20260901064819 66 168 0.0 0.0 0.00 0.00 0.00 95 1014.3
20260901064314 66 165 0.0 0.0 0.00 0.00 0.00 95 1014.3
20260901063812 66 165 0.0 0.0 0.00 0.00 0.00 94 1014.5
20260901063308 66 165 0.0 0.0 0.00 0.00 0.00 94 1014.3
20260901062804 66 165 0.0 0.0 0.00 0.00 0.00 94 1014.4
20260901062259 66 165 0.0 0.0 0.00 0.00 0.00 94 1014.3
20260901061755 67 165 0.0 0.0 0.00 0.00 0.00 94 1014.2
20260901061255 67 165 0.0 0.0 0.00 0.00 0.00 93 1014.2
20260901060750 67 165 0.0 0.0 0.00 0.00 0.00 93 1014.0
20260901060245 67 165 0.0 0.0 0.00 0.00 0.00 93 1014.1
20260901055741 67 165 0.0 0.0 0.00 0.00 0.00 92 1014.1
20260901055237 67 165 0.0 0.0 0.00 0.00 0.00 92 1013.9
20260901054734 67 165 0.0 0.0 0.00 0.00 0.00 92 1014.3
20260901054230 67 165 0.0 0.0 0.00 0.00 0.00 92 1014.0
20260901053726 68 165 0.0 0.0 0.00 0.00 0.00 91 1014.0
20260901053221 68 165 0.0 0.0 0.00 0.00 0.00 91 1013.9
20260901052722 68 165 0.0 0.0 0.00 0.00 0.00 90 1013.9
20260901052217 68 165 0.0 0.0 0.00 0.00 0.00 91 1013.8
20260901051716 68 165 0.0 0.0 0.00 0.00 0.00 90 1013.7
20260901051211 68 165 0.0 0.0 0.00 0.00 0.00 90 1013.8
20260901050707 68 165 0.0 0.0 0.00 0.00 0.00 90 1013.6
20260901050207 68 165 0.0 0.0 0.00 0.00 0.00 90 1013.7
20260901045701 68 165 0.0 0.0 0.00 0.00 0.00 89 1013.6
20260901045156 68 165 0.0 0.0 0.00 0.00 0.00 89 1013.5
20260901044652 69 165 0.0 0.0 0.00 0.00 0.00 89 1013.4
20260901044148 69 165 0.0 0.0 0.00 0.00 0.00 89 1013.3
20260901043643 69 165 0.0 0.0 0.00 0.00 0.00 89 1013.2
20260901043139 69 165 0.0 0.0 0.00 0.00 0.00 89 1013.2
20260901042638 69 165 0.0 0.0 0.00 0.00 0.00 89 1013.3
20260901042133 69 165 0.0 0.0 0.00 0.00 0.00 88 1013.3
20260901041629 69 165 0.0 0.0 0.00 0.00 0.00 87 1013.2
20260901041124 69 165 0.0 0.0 0.00 0.00 0.00 87 1013.4
20260901040624 69 165 0.0 0.0 0.00 0.00 0.00 86 1013.4
20260901040118 70 165 0.0 0.0 0.00 0.00 0.00 85 1013.3
20260901035616 70 165 0.0 0.0 0.00 0.00 0.00 85 1013.4
20260901035115 70 165 0.0 0.0 0.00 0.00 0.00 84 1013.5
20260901034614 70 165 0.0 0.0 0.00 0.00 0.00 84 1013.4
20260901034109 70 164 0.0 0.0 0.00 0.00 0.00 84 1013.5
20260901033608 71 164 0.0 0.0 0.00 0.00 0.00 83 1013.4
20260901033103 71 164 0.0 0.0 0.00 0.00 0.00 82 1013.5
20260901032601 72 164 0.0 0.0 0.00 0.00 0.00 81 1013.4
20260901032056 72 164 0.0 0.0 0.00 0.00 0.00 80 1013.4
20260901031552 72 164 0.0 0.0 0.00 0.00 0.00 80 1013.2
20260901031048 72 165 0.0 0.0 0.00 0.00 0.00 80 1013.2
20260901030548 72 165 0.0 0.0 0.00 0.00 0.00 80 1013.3
20260901030043 72 166 0.0 0.0 0.00 0.00 0.00 80 1013.4
20260901025542 73 166 0.0 0.0 0.00 0.00 0.00 79 1013.4
20260901025042 73 163 0.0 0.0 0.00 0.00 0.00 79 1013.2
20260901024537 73 168 0.0 0.0 0.00 0.00 0.00 78 1013.2
20260901024036 73 168 0.0 0.0 0.00 0.00 0.00 78 1013.1
20260901023535 73 168 0.0 0.0 0.00 0.00 0.00 77 1013.2
20260901023031 73 168 0.0 0.0 0.00 0.00 0.00 76 1012.9
20260901022526 74 168 0.0 0.0 0.00 0.00 0.00 76 1013.1
20260901022026 74 169 0.0 0.0 0.00 0.00 0.00 75 1012.8
20260901021522 74 169 0.0 0.0 0.00 0.00 0.00 75 1012.7
20260901021017 74 170 0.0 0.0 0.00 0.00 0.00 74 1012.9
20260901020513 75 170 0.0 0.0 0.00 0.00 0.00 73 1012.9
20260901020008 75 171 0.0 0.0 0.00 0.00 0.00 72 1012.8
20260901015503 76 167 0.0 0.0 0.00 0.00 0.00 70 1012.8
20260901015002 77 167 0.0 0.0 0.00 0.00 0.00 69 1012.7
20260901014458 77 167 0.0 0.0 0.00 0.00 0.00 68 1012.7
20260901013954 78 171 0.0 0.0 0.00 0.00 0.00 67 1012.6
20260901013450 78 165 0.0 0.0 0.00 0.00 0.00 67 1012.6
20260901012945 78 181 0.0 2.0 0.00 0.00 0.00 66 1012.4
20260901012439 78 171 0.0 0.0 0.00 0.00 0.00 65 1012.3
20260901011934 78 173 0.0 0.0 0.00 0.00 0.00 64 1012.3
20260901011431 78 170 0.0 0.0 0.00 0.00 0.00 63 1012.3
20260901010928 79 172 0.0 0.0 0.00 0.00 0.00 62 1012.1
20260901010424 79 172 0.0 0.0 0.00 0.00 0.00 62 1012.2
20260901005923 79 172 0.0 0.0 0.00 0.00 0.00 61 1012.3
20260901005418 80 167 0.0 0.0 0.00 0.00 0.00 60 1012.3
20260901004919 80 171 0.0 0.0 0.00 0.00 0.00 59 1012.2
20260901004418 80 172 0.0 0.0 0.00 0.00 0.00 59 1012.3
20260901003913 81 175 0.0 0.0 0.00 0.00 0.00 59 1012.2
20260901003408 81 170 0.0 0.0 0.00 0.00 0.00 58 1012.2
20260901002906 82 168 0.0 0.0 0.00 0.00 0.00 57 1012.2
20260901002401 82 169 0.0 0.0 0.00 0.00 0.00 55 1012.2
20260901001900 83 169 0.0 0.0 0.00 0.00 0.00 55 1012.2
20260901001356 84 171 0.0 0.0 0.00 0.00 0.00 54 1012.1
20260901000852 84 173 0.0 0.0 0.00 0.00 0.00 53 1012.0
20260901000347 85 144 0.0 2.0 0.00 0.00 0.00 52 1012.1
20260831235844 84 189 0.0 0.0 0.00 0.00 0.00 51 1011.8
20260831235341 85 177 0.0 0.0 0.00 0.00 0.00 49 1012.2
20260831234836 85 177 0.0 0.0 0.00 0.00 0.00 48 1012.1
20260831234336 85 261 0.0 0.0 0.00 0.00 0.00 46 1012.0
20260831233831 85 172 0.0 0.0 0.00 0.00 0.00 46 1011.9
20260831233327 86 172 0.0 0.0 0.00 0.00 0.00 44 1012.0
20260831232822 87 91 1.0 2.0 0.00 0.00 0.00 43 1011.8
20260831232318 87 169 1.0 2.0 0.00 0.00 0.00 42 1011.9
20260831231814 87 61 1.0 2.0 0.00 0.00 0.00 41 1012.0
20260831231310 88 170 1.0 2.0 0.00 0.00 0.00 42 1011.9
20260831230805 88 167 0.0 0.0 0.00 0.00 0.00 43 1011.7
20260831230300 88 173 0.0 2.0 0.00 0.00 0.00 43 1011.8
20260831225759 88 342 3.0 5.0 0.00 0.00 0.00 43 1012.0
20260831225255 89 169 0.0 0.0 0.00 0.00 0.00 43 1011.8
20260831224750 89 171 0.0 0.0 0.00 0.00 0.00 43 1011.8
20260831224245 89 168 1.0 3.0 0.00 0.00 0.00 42 1011.9
20260831223740 89 161 2.0 2.0 0.00 0.00 0.00 43 1011.8
20260831223236 89 143 0.0 2.0 0.00 0.00 0.00 43 1012.0
20260831222732 89 265 2.0 3.0 0.00 0.00 0.00 44 1011.7
20260831222228 90 157 2.0 3.0 0.00 0.00 0.00 44 1011.7
20260831221723 90 168 0.0 2.0 0.00 0.00 0.00 45 1011.4
20260831221218 91 158 0.0 2.0 0.00 0.00 0.00 43 1011.4
20260831220713 91 174 0.0 0.0 0.00 0.00 0.00 40 1011.5
20260831220208 91 187 0.0 2.0 0.00 0.00 0.00 38 1011.4
20260831215703 92 177 0.0 0.0 0.00 0.00 0.00 39 1011.5
20260831215159 92 254 0.0 0.0 0.00 0.00 0.00 38 1011.3
20260831214656 92 136 2.0 2.0 0.00 0.00 0.00 35 1011.3
20260831214153 93 159 2.0 3.0 0.00 0.00 0.00 36 1011.3
20260831213648 94 297 3.0 5.0 0.00 0.00 0.00 36 1011.4
20260831213143 93 170 0.0 0.0 0.00 0.00 0.00 42 1011.3
20260831212640 94 8 2.0 3.0 0.00 0.00 0.00 39 1011.3
20260831212137 94 316 2.0 3.0 0.00 0.00 0.00 36 1011.5
20260831211635 94 194 2.0 3.0 0.00 0.00 0.00 37 1011.3
20260831211130 94 151 0.0 0.0 0.00 0.00 0.00 35 1011.2
20260831210625 94 175 2.0 2.0 0.00 0.00 0.00 37 1011.4
20260831210121 94 181 1.0 2.0 0.00 0.00 0.00 38 1011.2
20260831205620 94 80 2.0 3.0 0.00 0.00 0.00 37 1011.0
20260831205117 94 15 2.0 3.0 0.00 0.00 0.00 35 1011.3
20260831204616 94 175 2.0 2.0 0.00 0.00 0.00 38 1011.2
20260831204114 94 176 0.0 0.0 0.00 0.00 0.00 40 1011.2
20260831203614 95 177 0.0 2.0 0.00 0.00 0.00 37 1011.4
20260831203114 95 259 0.0 2.0 0.00 0.00 0.00 38 1011.1
20260831202613 94 191 0.0 2.0 0.00 0.00 0.00 40 1011.3
20260831202113 93 223 2.0 2.0 0.00 0.00 0.00 37 1011.3
20260831201612 93 83 2.0 3.0 0.00 0.00 0.00 39 1011.3
20260831201107 93 10 6.0 9.0 0.00 0.00 0.00 39 1011.4
20260831200604 93 178 2.0 2.0 0.00 0.00 0.00 41 1011.2
20260831200058 93 183 0.0 2.0 0.00 0.00 0.00 41 1011.2
20260831195554 94 68 4.0 7.0 0.00 0.00 0.00 40 1011.2
20260831195049 93 190 1.0 2.0 0.00 0.00 0.00 39 1011.3
20260831194543 93 167 1.0 2.0 0.00 0.00 0.00 41 1011.1
20260831194038 93 251 1.0 2.0 0.00 0.00 0.00 43 1011.0
20260831193533 93 181 0.0 0.0 0.00 0.00 0.00 43 1011.4